QPF
0.06 0.04 0.03 0.02 0.03 0.03 0.03 0.03 0.02 0.02 0.01 0.01 0.01 0.01 0.01 0.01 0.01 0.01 0.02 0.01 0.02 0.03 0.04 0.05 0.04 0.03 0.02 0.02 0.01 0.01 0.01 0.01 0.01 0.01 0.01 0.01 0.01 0.01 0.01 0.01 0.01 0.01 0.01
0.08 0.07 0.05 0.03 0.02 0.03 0.04 0.04 0.03 0.02 0.02 0.02 0.01 0.01 0.01 0.01 0.01 0.01 0.01 0.02 0.01 0.02 0.03 0.03 0.03 0.04 0.02 0.02 0.01 0.01 0.01 0.02 0.01 0.01 0.01 0.01 0.01 0.01 0.01 0.01 0.01 0.01 0.01
0.08 0.08 0.07 0.05 0.03 0.02 0.03 0.04 0.04 0.04 0.02 0.02 0.02 0.01 0.01 0.01 0.01 0.01 0.01 0.02 0.02 0.02 0.01 0.02 0.02 0.03 0.03 0.03 0.02 0.02 0.02 0.02 0.02 0.02 0.01 0.01 0.01 0.01 0.01 0.02 0.02 0.02 0.01
0.09 0.09 0.08 0.06 0.03 0.02 0.03 0.04 0.04 0.04 0.04 0.02 0.02 0.01 0.01 0.01 0.01 0.01 0.01 0.02 0.02 0.02 0.02 0.01 0.02 0.03 0.04 0.04 0.03 0.03 0.03 0.02 0.02 0.02 0.01 0.01 0.01 0.01 0.01 0.02 0.02 0.01 0.01
0.09 0.10 0.09 0.07 0.06 0.04 0.05 0.06 0.05 0.04 0.03 0.02 0.01 0.01 0.01 0.01 0.01 0.01 0.02 0.02 0.01 0.01 0.02 0.02 0.02 0.03 0.04 0.05 0.05 0.04 0.03 0.03 0.02 0.02 0.01 0.01 0.01 0.01 0.01 0.01 0.01 0.01 0.02
0.09 0.12 0.10 0.09 0.06 0.05 0.05 0.08 0.09 0.06 0.03 0.02 0.02 0.02 0.02 0.01 0.01 0.02 0.01 0.01 0.01 0.01 0.02 0.03 0.02 0.02 0.03 0.05 0.06 0.06 0.03 0.03 0.02 0.02 0.02 0.01 0.01 0.01 0.01 0.01 0.01 0.01 0.01
0.07 0.12 0.12 0.10 0.07 0.06 0.05 0.06 0.09 0.10 0.06 0.03 0.03 0.03 0.02 0.02 0.01 0.01 0.01 0.01 0.01 0.01 0.02 0.03 0.04 0.03 0.02 0.02 0.03 0.05 0.04 0.03 0.02 0.02 0.03 0.03 0.02 0.02 0.02 0.02 0.01 0.01 0.01
0.05 0.08 0.12 0.11 0.08 0.06 0.06 0.06 0.07 0.09 0.09 0.05 0.03 0.03 0.03 0.03 0.02 0.01 0.01 0.02 0.02 0.02 0.02 0.02 0.04 0.05 0.03 0.02 0.02 0.02 0.03 0.03 0.02 0.02 0.02 0.02 0.04 0.03 0.02 0.02 0.01 0.01 0.01
0.06 0.08 0.11 0.11 0.08 0.06 0.05 0.06 0.07 0.09 0.10 0.08 0.04 0.03 0.03 0.03 0.03 0.02 0.02 0.02 0.02 0.03 0.03 0.03 0.03 0.05 0.05 0.04 0.03 0.02 0.02 0.02 0.02 0.02 0.02 0.02 0.02 0.03 0.04 0.04 0.02 0.01 0.01
0.08 0.09 0.12 0.11 0.09 0.07 0.05 0.05 0.06 0.09 0.11 0.09 0.06 0.04 0.03 0.03 0.03 0.03 0.03 0.03 0.03 0.03 0.04 0.04 0.04 0.04 0.05 0.05 0.04 0.03 0.03 0.02 0.02 0.02 0.02 0.02 0.02 0.02 0.03 0.04 0.03 0.02 0.02
0.09 0.10 0.12 0.14 0.11 0.08 0.06 0.04 0.04 0.06 0.09 0.09 0.07 0.05 0.04 0.03 0.03 0.03 0.04 0.04 0.04 0.03 0.03 0.03 0.04 0.04 0.04 0.04 0.04 0.03 0.02 0.02 0.02 0.02 0.02 0.02 0.02 0.02 0.03 0.04 0.04 0.03 0.03
0.07 0.07 0.11 0.13 0.12 0.08 0.06 0.04 0.03 0.04 0.06 0.08 0.07 0.06 0.05 0.04 0.03 0.03 0.03 0.03 0.04 0.03 0.02 0.02 0.02 0.03 0.03 0.04 0.04 0.04 0.03 0.02 0.01 0.02 0.02 0.02 0.02 0.02 0.04 0.04 0.04 0.03 0.03
0.07 0.06 0.08 0.11 0.11 0.09 0.06 0.04 0.03 0.03 0.04 0.06 0.07 0.06 0.04 0.04 0.04 0.04 0.04 0.04 0.04 0.04 0.03 0.03 0.01 0.01 0.02 0.03 0.04 0.05 0.04 0.02 0.01 0.01 0.01 0.02 0.02 0.02 0.03 0.05 0.04 0.03 0.02
0.09 0.08 0.08 0.09 0.09 0.09 0.07 0.05 0.03 0.03 0.03 0.04 0.05 0.06 0.05 0.04 0.04 0.04 0.04 0.04 0.04 0.04 0.04 0.03 0.02 0.01 0.01 0.01 0.02 0.04 0.04 0.03 0.01 0.01 0.01 0.01 0.02 0.02 0.02 0.04 0.04 0.03 0.01
0.13 0.10 0.10 0.09 0.09 0.09 0.08 0.06 0.05 0.04 0.03 0.03 0.03 0.03 0.05 0.05 0.04 0.04 0.04 0.04 0.05 0.04 0.03 0.03 0.02 0.01 0.01 0.01 0.01 0.02 0.02 0.03 0.03 0.02 0.02 0.01 0.01 0.03 0.04 0.04 0.04 0.02 0.01
0.21 0.17 0.12 0.11 0.11 0.11 0.10 0.09 0.07 0.05 0.04 0.04 0.03 0.02 0.02 0.03 0.03 0.04 0.04 0.04 0.04 0.04 0.03 0.02 0.02 0.02 0.01 0.00 0.00 0.01 0.01 0.02 0.02 0.02 0.03 0.02 0.02 0.03 0.05 0.06 0.04 0.02 0.01
0.21 0.25 0.20 0.15 0.14 0.15 0.14 0.13 0.10 0.08 0.06 0.05 0.04 0.03 0.02 0.02 0.02 0.02 0.03 0.04 0.04 0.04 0.03 0.02 0.02 0.02 0.02 0.01 0.00 0.00 0.01 0.01 0.02 0.02 0.02 0.02 0.02 0.02 0.04 0.06 0.06 0.04 0.01
0.13 0.18 0.22 0.18 0.12 0.11 0.13 0.14 0.14 0.13 0.10 0.07 0.05 0.03 0.02 0.02 0.02 0.02 0.03 0.03 0.03 0.04 0.04 0.03 0.03 0.03 0.03 0.02 0.01 0.01 0.01 0.01 0.01 0.02 0.01 0.01 0.02 0.02 0.03 0.04 0.04 0.04 0.03
0.11 0.13 0.15 0.18 0.18 0.14 0.12 0.12 0.13 0.14 0.14 0.12 0.10 0.07 0.05 0.03 0.02 0.02 0.02 0.03 0.03 0.03 0.04 0.04 0.03 0.04 0.04 0.03 0.02 0.01 0.01 0.01 0.01 0.01 0.01 0.01 0.02 0.03 0.03 0.03 0.03 0.03 0.03
0.08 0.10 0.13 0.13 0.15 0.17 0.15 0.13 0.12 0.11 0.11 0.11 0.10 0.08 0.06 0.04 0.04 0.03 0.02 0.02 0.03 0.03 0.04 0.05 0.04 0.04 0.04 0.04 0.04 0.03 0.03 0.03 0.02 0.01 0.01 0.02 0.02 0.03 0.04 0.03 0.03 0.03 0.02
0.06 0.08 0.10 0.10 0.10 0.12 0.14 0.14 0.13 0.12 0.11 0.09 0.08 0.08 0.07 0.05 0.03 0.03 0.03 0.02 0.03 0.03 0.03 0.04 0.05 0.05 0.05 0.05 0.06 0.04 0.04 0.04 0.03 0.03 0.02 0.02 0.02 0.02 0.02 0.03 0.03 0.04 0.03
0.08 0.07 0.08 0.08 0.08 0.09 0.11 0.11 0.11 0.11 0.11 0.11 0.10 0.08 0.06 0.05 0.04 0.04 0.03 0.03 0.02 0.03 0.03 0.03 0.04 0.04 0.04 0.05 0.05 0.05 0.04 0.04 0.05 0.05 0.03 0.03 0.02 0.01 0.01 0.02 0.03 0.03 0.03
0.09 0.09 0.08 0.08 0.07 0.07 0.08 0.07 0.08 0.08 0.08 0.09 0.09 0.08 0.08 0.06 0.05 0.04 0.04 0.03 0.02 0.02 0.03 0.03 0.03 0.03 0.03 0.04 0.05 0.06 0.05 0.03 0.03 0.04 0.04 0.04 0.03 0.02 0.02 0.03 0.04 0.03 0.03
0.06 0.07 0.08 0.07 0.06 0.06 0.06 0.06 0.07 0.07 0.06 0.07 0.07 0.07 0.06 0.06 0.06 0.05 0.05 0.04 0.04 0.02 0.02 0.03 0.03 0.03 0.03 0.04 0.05 0.05 0.05 0.05 0.04 0.03 0.03 0.04 0.04 0.03 0.02 0.02 0.03 0.02 0.02
0.04 0.05 0.06 0.06 0.06 0.06 0.06 0.06 0.07 0.07 0.07 0.06 0.06 0.06 0.05 0.05 0.05 0.06 0.07 0.06 0.05 0.05 0.04 0.04 0.04 0.04 0.04 0.05 0.05 0.06 0.06 0.06 0.06 0.05 0.04 0.04 0.04 0.03 0.03 0.03 0.03 0.03 0.02
0.04 0.05 0.06 0.06 0.05 0.07 0.08 0.07 0.07 0.07 0.08 0.07 0.06 0.05 0.06 0.06 0.06 0.06 0.06 0.07 0.06 0.06 0.06 0.06 0.05 0.05 0.05 0.05 0.06 0.06 0.06 0.06 0.05 0.05 0.04 0.04 0.03 0.03 0.03 0.03 0.03 0.03 0.02
MSLP
1012.57 1013.54 1014.51 1015.40 1016.14 1016.74 1017.24 1017.66 1018.07 1018.51 1018.97 1019.46 1019.95 1020.41 1020.82 1021.20 1021.54 1021.88 1022.25 1022.68 1023.16 1023.68 1024.21 1024.73 1025.20 1025.59 1025.91 1026.17 1026.40 1026.62 1026.86 1027.13 1027.42 1027.72 1028.00 1028.23 1028.40 1028.51 1028.57 1028.60 1028.60 1028.61 1028.61
1012.00 1012.99 1013.99 1014.90 1015.68 1016.33 1016.88 1017.39 1017.89 1018.42 1018.98 1019.55 1020.12 1020.64 1021.10 1021.49 1021.84 1022.16 1022.51 1022.90 1023.35 1023.85 1024.38 1024.90 1025.39 1025.83 1026.20 1026.51 1026.79 1027.06 1027.34 1027.63 1027.93 1028.23 1028.51 1028.73 1028.91 1029.02 1029.08 1029.11 1029.11 1029.12 1029.12
1011.37 1012.40 1013.44 1014.39 1015.22 1015.93 1016.56 1017.15 1017.74 1018.37 1019.03 1019.70 1020.34 1020.93 1021.44 1021.85 1022.21 1022.52 1022.84 1023.19 1023.59 1024.05 1024.55 1025.06 1025.56 1026.02 1026.43 1026.80 1027.14 1027.45 1027.77 1028.09 1028.41 1028.71 1028.98 1029.20 1029.37 1029.48 1029.53 1029.56 1029.57 1029.58 1029.59
1010.71 1011.80 1012.88 1013.89 1014.78 1015.56 1016.27 1016.94 1017.62 1018.34 1019.09 1019.84 1020.56 1021.22 1021.78 1022.24 1022.61 1022.92 1023.21 1023.53 1023.89 1024.30 1024.75 1025.24 1025.72 1026.19 1026.63 1027.04 1027.42 1027.79 1028.15 1028.50 1028.83 1029.14 1029.40 1029.61 1029.77 1029.87 1029.93 1029.96 1029.99 1030.01 1030.04
1010.04 1011.19 1012.33 1013.40 1014.36 1015.21 1015.99 1016.74 1017.50 1018.28 1019.10 1019.92 1020.71 1021.43 1022.05 1022.56 1022.97 1023.31 1023.61 1023.90 1024.23 1024.59 1025.00 1025.44 1025.90 1026.36 1026.80 1027.24 1027.66 1028.07 1028.46 1028.84 1029.19 1029.50 1029.76 1029.96 1030.11 1030.21 1030.27 1030.32 1030.36 1030.40 1030.45
1009.41 1010.59 1011.79 1012.92 1013.94 1014.86 1015.70 1016.51 1017.32 1018.15 1019.02 1019.88 1020.72 1021.50 1022.18 1022.76 1023.23 1023.62 1023.95 1024.26 1024.57 1024.91 1025.28 1025.67 1026.09 1026.52 1026.96 1027.40 1027.84 1028.28 1028.70 1029.10 1029.47 1029.79 1030.05 1030.25 1030.40 1030.50 1030.57 1030.63 1030.70 1030.77 1030.85
1008.83 1010.03 1011.26 1012.43 1013.50 1014.48 1015.37 1016.22 1017.05 1017.91 1018.78 1019.67 1020.54 1021.36 1022.11 1022.76 1023.32 1023.79 1024.19 1024.55 1024.88 1025.22 1025.56 1025.92 1026.29 1026.69 1027.10 1027.53 1027.98 1028.43 1028.87 1029.29 1029.67 1030.00 1030.28 1030.49 1030.64 1030.75 1030.84 1030.93 1031.02 1031.12 1031.23
1008.33 1009.51 1010.73 1011.92 1013.03 1014.04 1014.97 1015.84 1016.68 1017.52 1018.39 1019.26 1020.14 1021.00 1021.80 1022.54 1023.20 1023.78 1024.28 1024.71 1025.10 1025.46 1025.80 1026.14 1026.48 1026.84 1027.22 1027.63 1028.06 1028.51 1028.96 1029.40 1029.80 1030.15 1030.44 1030.66 1030.84 1030.97 1031.09 1031.20 1031.32 1031.46 1031.60
1007.93 1009.03 1010.21 1011.39 1012.51 1013.54 1014.48 1015.35 1016.18 1017.00 1017.83 1018.68 1019.55 1020.42 1021.28 1022.09 1022.85 1023.55 1024.17 1024.71 1025.18 1025.60 1025.96 1026.30 1026.62 1026.95 1027.30 1027.68 1028.10 1028.54 1028.99 1029.43 1029.85 1030.22 1030.53 1030.78 1030.98 1031.14 1031.29 1031.44 1031.60 1031.76 1031.94
1007.61 1008.59 1009.69 1010.83 1011.92 1012.95 1013.89 1014.76 1015.58 1016.37 1017.16 1017.98 1018.82 1019.69 1020.57 1021.45 1022.31 1023.12 1023.86 1024.52 1025.09 1025.58 1025.99 1026.35 1026.67 1026.98 1027.31 1027.66 1028.05 1028.48 1028.93 1029.38 1029.81 1030.20 1030.54 1030.82 1031.05 1031.25 1031.44 1031.62 1031.81 1032.01 1032.21
1007.36 1008.19 1009.18 1010.23 1011.29 1012.30 1013.24 1014.11 1014.91 1015.68 1016.43 1017.21 1018.02 1018.87 1019.77 1020.69 1021.62 1022.52 1023.37 1024.14 1024.82 1025.39 1025.86 1026.26 1026.59 1026.90 1027.21 1027.55 1027.93 1028.34 1028.79 1029.24 1029.68 1030.09 1030.46 1030.77 1031.04 1031.28 1031.50 1031.72 1031.95 1032.17 1032.39
1007.20 1007.84 1008.68 1009.63 1010.62 1011.60 1012.54 1013.41 1014.21 1014.96 1015.70 1016.44 1017.22 1018.05 1018.94 1019.88 1020.85 1021.81 1022.74 1023.60 1024.36 1025.02 1025.56 1026.00 1026.37 1026.69 1027.01 1027.34 1027.71 1028.11 1028.55 1029.01 1029.46 1029.89 1030.28 1030.63 1030.94 1031.21 1031.46 1031.71 1031.96 1032.21 1032.45
1007.10 1007.54 1008.21 1009.04 1009.95 1010.89 1011.81 1012.69 1013.51 1014.27 1015.00 1015.72 1016.48 1017.28 1018.15 1019.08 1020.05 1021.04 1022.01 1022.93 1023.76 1024.48 1025.09 1025.58 1026.00 1026.35 1026.68 1027.02 1027.39 1027.80 1028.24 1028.70 1029.16 1029.61 1030.02 1030.40 1030.73 1031.03 1031.31 1031.58 1031.84 1032.11 1032.37
1007.10 1007.33 1007.81 1008.49 1009.30 1010.19 1011.10 1011.98 1012.82 1013.61 1014.35 1015.08 1015.82 1016.60 1017.43 1018.33 1019.28 1020.26 1021.24 1022.18 1023.04 1023.81 1024.47 1025.02 1025.48 1025.88 1026.24 1026.61 1026.99 1027.41 1027.85 1028.32 1028.79 1029.25 1029.68 1030.07 1030.42 1030.74 1031.04 1031.32 1031.59 1031.86 1032.13
1007.19 1007.20 1007.49 1008.00 1008.70 1009.52 1010.40 1011.29 1012.16 1012.99 1013.77 1014.52 1015.26 1016.01 1016.81 1017.66 1018.56 1019.50 1020.45 1021.37 1022.25 1023.04 1023.74 1024.34 1024.85 1025.30 1025.71 1026.12 1026.53 1026.96 1027.42 1027.90 1028.37 1028.84 1029.28 1029.68 1030.04 1030.36 1030.65 1030.94 1031.21 1031.49 1031.76
1007.39 1007.19 1007.27 1007.60 1008.16 1008.89 1009.73 1010.62 1011.52 1012.39 1013.21 1014.00 1014.75 1015.50 1016.27 1017.07 1017.91 1018.78 1019.68 1020.56 1021.42 1022.22 1022.94 1023.58 1024.15 1024.66 1025.12 1025.57 1026.02 1026.48 1026.96 1027.44 1027.93 1028.39 1028.83 1029.23 1029.58 1029.90 1030.19 1030.46 1030.72 1031.00 1031.28
1007.69 1007.28 1007.14 1007.29 1007.69 1008.31 1009.08 1009.95 1010.87 1011.78 1012.65 1013.48 1014.26 1015.01 1015.76 1016.51 1017.29 1018.10 1018.93 1019.76 1020.59 1021.38 1022.12 1022.80 1023.42 1023.98 1024.50 1025.00 1025.49 1025.98 1026.48 1026.97 1027.45 1027.92 1028.34 1028.73 1029.07 1029.37 1029.64 1029.89 1030.15 1030.41 1030.70
1008.06 1007.44 1007.10 1007.05 1007.28 1007.76 1008.44 1009.27 1010.18 1011.12 1012.03 1012.90 1013.72 1014.49 1015.23 1015.95 1016.68 1017.43 1018.20 1018.98 1019.77 1020.55 1021.30 1022.01 1022.67 1023.29 1023.86 1024.41 1024.94 1025.46 1025.98 1026.48 1026.96 1027.40 1027.82 1028.18 1028.50 1028.78 1029.03 1029.27 1029.51 1029.76 1030.05
1008.46 1007.66 1007.12 1006.86 1006.91 1007.23 1007.80 1008.55 1009.43 1010.37 1011.32 1012.22 1013.08 1013.87 1014.62 1015.33 1016.03 1016.73 1017.46 1018.20 1018.96 1019.73 1020.49 1021.22 1021.92 1022.58 1023.21 1023.80 1024.37 1024.91 1025.44 1025.94 1026.41 1026.84 1027.24 1027.58 1027.88 1028.14 1028.36 1028.58 1028.81 1029.07 1029.37
1008.86 1007.90 1007.17 1006.72 1006.57 1006.73 1007.16 1007.81 1008.62 1009.53 1010.48 1011.40 1012.28 1013.11 1013.87 1014.58 1015.28 1015.97 1016.67 1017.40 1018.15 1018.91 1019.68 1020.43 1021.16 1021.86 1022.52 1023.15 1023.74 1024.30 1024.83 1025.34 1025.80 1026.22 1026.60 1026.92 1027.20 1027.44 1027.65 1027.86 1028.08 1028.35 1028.66
1009.27 1008.16 1007.27 1006.64 1006.30 1006.28 1006.54 1007.06 1007.77 1008.61 1009.52 1010.44 1011.32 1012.16 1012.95 1013.68 1014.39 1015.09 1015.80 1016.53 1017.29 1018.06 1018.85 1019.62 1020.38 1021.11 1021.79 1022.44 1023.05 1023.62 1024.16 1024.66 1025.12 1025.53 1025.89 1026.21 1026.47 1026.70 1026.91 1027.11 1027.34 1027.62 1027.95
1009.68 1008.47 1007.44 1006.65 1006.13 1005.92 1006.00 1006.35 1006.91 1007.64 1008.47 1009.34 1010.21 1011.04 1011.84 1012.61 1013.34 1014.08 1014.82 1015.58 1016.37 1017.17 1017.98 1018.78 1019.56 1020.30 1021.01 1021.67 1022.29 1022.87 1023.41 1023.91 1024.37 1024.79 1025.15 1025.47 1025.73 1025.96 1026.18 1026.39 1026.63 1026.92 1027.28
1010.15 1008.87 1007.74 1006.80 1006.12 1005.72 1005.60 1005.75 1006.13 1006.70 1007.40 1008.17 1008.98 1009.79 1010.59 1011.37 1012.15 1012.93 1013.73 1014.54 1015.37 1016.22 1017.06 1017.89 1018.69 1019.45 1020.17 1020.84 1021.47 1022.06 1022.61 1023.13 1023.60 1024.03 1024.41 1024.74 1025.03 1025.28 1025.50 1025.73 1025.99 1026.30 1026.68
1010.73 1009.43 1008.22 1007.17 1006.34 1005.75 1005.42 1005.35 1005.51 1005.87 1006.38 1007.01 1007.71 1008.45 1009.23 1010.02 1010.84 1011.68 1012.54 1013.42 1014.31 1015.21 1016.10 1016.97 1017.80 1018.58 1019.31 1019.99 1020.63 1021.24 1021.81 1022.35 1022.85 1023.31 1023.73 1024.10 1024.42 1024.70 1024.95 1025.20 1025.48 1025.81 1026.21
1011.47 1010.17 1008.93 1007.80 1006.84 1006.07 1005.52 1005.20 1005.11 1005.22 1005.52 1005.95 1006.50 1007.14 1007.86 1008.65 1009.49 1010.38 1011.30 1012.26 1013.23 1014.19 1015.14 1016.04 1016.90 1017.70 1018.45 1019.15 1019.82 1020.45 1021.06 1021.64 1022.19 1022.70 1023.17 1023.59 1023.96 1024.28 1024.57 1024.85 1025.15 1025.48 1025.89
1012.38 1011.12 1009.88 1008.69 1007.61 1006.68 1005.92 1005.35 1004.99 1004.83 1004.87 1005.08 1005.44 1005.95 1006.59 1007.34 1008.19 1009.12 1010.11 1011.13 1012.17 1013.20 1014.20 1015.15 1016.04 1016.87 1017.65 1018.38 1019.07 1019.74 1020.40 1021.04 1021.65 1022.23 1022.77 1023.25 1023.67 1024.05 1024.37 1024.68 1024.99 1025.34 1025.73
Thickness
5648 5650 5652 5653 5655 5656 5657 5658 5659 5661 5663 5663 5664 5665 5665 5666 5666 5666 5665 5664 5664 5664 5664 5664 5664 5663 5663 5662 5660 5659 5658 5657 5655 5654 5652 5651 5649 5648 5647 5645 5644 5643 5641
5639 5642 5644 5647 5648 5650 5652 5653 5654 5655 5657 5658 5658 5659 5660 5660 5661 5661 5660 5659 5659 5659 5659 5660 5659 5659 5658 5658 5657 5655 5654 5653 5651 5650 5648 5647 5645 5644 5643 5642 5641 5639 5638
5631 5633 5636 5639 5641 5643 5645 5646 5647 5649 5650 5651 5652 5653 5653 5654 5655 5655 5655 5655 5654 5654 5654 5654 5655 5655 5654 5653 5653 5651 5650 5649 5648 5646 5644 5643 5642 5641 5639 5638 5637 5636 5634
5622 5625 5628 5631 5633 5635 5638 5640 5641 5643 5644 5645 5646 5646 5647 5647 5649 5650 5650 5650 5650 5650 5649 5649 5649 5649 5649 5649 5648 5647 5646 5645 5644 5642 5641 5639 5638 5637 5636 5635 5633 5632 5631
5613 5616 5619 5623 5625 5628 5631 5632 5634 5636 5636 5637 5638 5638 5640 5641 5642 5643 5644 5645 5644 5645 5645 5644 5644 5644 5644 5644 5643 5643 5642 5641 5640 5638 5637 5636 5635 5634 5632 5631 5630 5628 5627
5603 5607 5611 5614 5617 5620 5622 5624 5626 5627 5629 5629 5630 5630 5632 5633 5635 5637 5638 5639 5639 5639 5640 5640 5640 5639 5639 5638 5638 5638 5637 5637 5635 5634 5633 5632 5631 5630 5629 5627 5626 5624 5623
5593 5597 5602 5605 5609 5612 5614 5617 5618 5619 5620 5622 5623 5622 5623 5626 5628 5630 5631 5632 5633 5634 5634 5634 5635 5634 5634 5633 5633 5633 5632 5632 5631 5630 5629 5628 5627 5626 5624 5623 5622 5620 5619
5583 5587 5592 5596 5600 5603 5605 5608 5610 5612 5612 5615 5618 5618 5619 5619 5621 5623 5625 5626 5628 5628 5629 5629 5629 5629 5629 5629 5628 5627 5627 5626 5625 5625 5624 5623 5622 5621 5620 5619 5617 5616 5614
5573 5577 5582 5586 5591 5594 5597 5599 5602 5605 5607 5608 5611 5615 5615 5618 5617 5617 5618 5620 5621 5623 5623 5623 5623 5624 5624 5623 5623 5622 5621 5621 5620 5620 5619 5618 5617 5616 5615 5614 5612 5611 5610
5562 5567 5571 5576 5581 5585 5588 5591 5594 5598 5600 5602 5603 5607 5612 5615 5613 5612 5612 5613 5614 5616 5618 5618 5618 5618 5618 5618 5617 5616 5615 5615 5615 5614 5614 5613 5612 5611 5610 5608 5607 5605 5604
5551 5556 5561 5565 5570 5575 5579 5582 5585 5589 5593 5596 5598 5599 5601 5604 5608 5609 5609 5608 5608 5609 5611 5611 5612 5612 5612 5612 5611 5611 5610 5610 5609 5608 5608 5607 5606 5605 5604 5602 5601 5599 5598
5540 5544 5549 5554 5560 5565 5570 5573 5576 5580 5584 5588 5592 5595 5597 5599 5601 5604 5604 5603 5603 5603 5603 5604 5606 5606 5606 5606 5606 5605 5605 5604 5603 5602 5602 5601 5600 5599 5598 5596 5595 5593 5591
5530 5534 5539 5544 5550 5555 5560 5564 5567 5572 5575 5580 5584 5587 5591 5594 5596 5597 5597 5597 5597 5596 5596 5597 5599 5600 5600 5600 5600 5599 5599 5598 5597 5596 5595 5595 5593 5592 5591 5590 5588 5587 5585
5518 5523 5528 5533 5539 5545 5550 5554 5559 5563 5568 5572 5575 5579 5582 5586 5588 5590 5591 5591 5590 5590 5591 5592 5592 5593 5593 5593 5594 5593 5592 5591 5591 5590 5589 5588 5587 5585 5584 5583 5582 5580 5578
5506 5511 5517 5523 5528 5535 5541 5545 5550 5555 5559 5563 5567 5570 5574 5577 5580 5581 5584 5586 5588 5587 5587 5587 5587 5587 5587 5587 5586 5586 5586 5585 5584 5583 5582 5581 5580 5579 5577 5576 5574 5573 5571
5496 5501 5507 5513 5519 5525 5531 5536 5542 5547 5551 5555 5558 5562 5565 5569 5571 5573 5576 5578 5582 5584 5583 5583 5582 5580 5579 5579 5579 5578 5578 5578 5577 5576 5575 5574 5573 5572 5571 5569 5567 5566 5564
5484 5490 5496 5502 5508 5515 5520 5526 5533 5537 5543 5546 5549 5553 5557 5561 5564 5566 5568 5570 5573 5576 5576 5575 5573 5573 5572 5572 5572 5571 5570 5570 5570 5569 5568 5567 5565 5564 5563 5561 5560 5558 5557
5472 5479 5485 5491 5497 5504 5510 5516 5523 5529 5534 5538 5542 5545 5548 5552 5555 5558 5560 5563 5565 5567 5568 5568 5566 5565 5565 5565 5565 5564 5563 5562 5562 5561 5560 5559 5558 5556 5555 5553 5552 5550 5549
5461 5468 5474 5481 5487 5493 5500 5506 5512 5519 5525 5530 5534 5537 5540 5543 5547 5550 5552 5555 5556 5558 5560 5561 5560 5558 5557 5556 5556 5556 5555 5554 5553 5553 5551 5550 5549 5548 5547 5545 5544 5542 5540
5451 5457 5464 5470 5476 5483 5489 5496 5503 5509 5515 5519 5525 5528 5531 5535 5538 5541 5544 5546 5547 5549 5551 5551 5551 5550 5549 5548 5548 5549 5547 5546 5546 5544 5543 5542 5541 5539 5538 5537 5535 5533 5531
5439 5445 5452 5459 5465 5472 5480 5487 5493 5498 5504 5508 5514 5518 5521 5525 5529 5531 5534 5537 5539 5541 5542 5543 5543 5543 5542 5541 5542 5542 5541 5539 5538 5536 5535 5533 5532 5532 5530 5528 5526 5524 5522
5428 5435 5442 5449 5456 5463 5470 5476 5482 5487 5492 5497 5503 5507 5510 5514 5517 5520 5523 5526 5529 5532 5534 5535 5536 5536 5537 5537 5536 5534 5532 5531 5531 5529 5526 5526 5524 5523 5521 5519 5517 5515 5512
5417 5424 5431 5438 5446 5453 5458 5464 5470 5475 5481 5487 5492 5496 5500 5504 5507 5510 5512 5514 5518 5521 5524 5527 5528 5529 5530 5530 5528 5526 5525 5524 5524 5521 5517 5517 5515 5513 5512 5510 5507 5505 5502
5406 5413 5419 5426 5434 5441 5447 5453 5459 5464 5469 5475 5481 5486 5491 5494 5496 5499 5502 5504 5507 5510 5513 5515 5519 5520 5519 5519 5519 5518 5516 5513 5510 5508 5507 5506 5505 5503 5501 5499 5497 5495 5492
5394 5400 5407 5415 5423 5430 5435 5442 5447 5452 5458 5464 5469 5475 5479 5484 5487 5488 5491 5495 5498 5499 5500 5503 5505 5506 5506 5507 5507 5505 5503 5501 5500 5497 5494 5495 5494 5491 5490 5488 5486 5483 5481
5381 5388 5395 5403 5410 5417 5423 5429 5434 5441 5448 5454 5459 5464 5468 5473 5476 5478 5481 5484 5488 5489 5490 5491 5491 5493 5494 5494 5494 5494 5495 5493 5492 5488 5485 5483 5482 5478 5477 5476 5473 5471 5469